STARLINK-34409

导读

STARLINK-34409是美国于2025年6月23日发射的星链卫星,隶属于SpaceX公司的星链星座项目。星链项目旨在构建全球卫星互联网星座,为全球多地提供高速低延迟的宽带互联网服务,该卫星的入轨进一步扩充了星链星座的在轨卫星规模,提升了星座的覆盖能力与服务稳定性。

基本信息
目录编号:
64485
目录名称:
STARLINK-34409
国际标识:
2025-133P
轨道中心:
EARTH
卫星名称:
STARLINK-34409
卫星全名:
STARLINK-34409
卫星状态:
在轨 (已飞行355 天)
发射日期:
2025-06-23 UTC
国别 :
美国 (US)
星等 :
--
轨道信息
数据来源 国际轨道数据
星历时间: 2026-06-13T05:50:59+0800
1天前
查看轨道信息
半长轴: 6853.323km
偏心率: 0.0001071
轨道倾角: 53.160°
近地点辐角 83.744°
升交点赤经 34.754°
平近点角 276.368°
近地点: 474.452km
远地点: 475.92km
周期: 94.105分钟
每日圈数: 15.302098
详细信息
使用方式:
暂无
2D轨道图
3D轨道图
轨道高度分析图
轨道倾角分析图
轨道综合分析图
查看轨道综合分析图